S-NET A

Last updated on July 6, 2021, 3:39 p.m. UTC

1 43188U 18014J   21186.73686661  .00000285  00000-0  29739-4 0  9998
2 43188  97.6761  94.0070 0011466  27.1220 333.0599 14.97075529187034
UTC
Height (km)
Latitude
Longitude
Inclination
Orbital Period
UTC large
Height (km)
Speed (km/s)
/
Latitude / Longitude
Inclination (degrees)
Orbital Period (minutes)
Azimuth
Elevation
Range (km)
Doppler Factor
iOS Compass Heading
iOS Angle